Wetterdaten: Woche 13.11.23 - 19.11.23 (KW46)
Datum Zeit Temp. I. Temp. A. Feuchte I. Feuchte A. Luftdruck Regen Wind Richtung Sonnenschein Solar Taupunkt Windchill Windböen
13.11.2023 00:00 21,6 °C 2,9 °C 60 % 88 % 1010,7 hPa 0,0 l/m² 2,1 km/h (1 Bft) S-SW 0,00 h 0 W/m² 1,1 °C 2,9 °C 3,6 km/h (1 Bft)
13.11.2023 01:00 21,6 °C 1,5 °C 60 % 90 % 1010,9 hPa 0,0 l/m² 0,1 km/h (0 Bft) S-SW 0,00 h 0 W/m² 0,1 °C 1,5 °C 0,6 km/h (0 Bft)
13.11.2023 02:00 21,5 °C 0,7 °C 60 % 90 % 1010,6 hPa 0,0 l/m² 1,0 km/h (0 Bft) S-SW 0,00 h 0 W/m² -0,7 °C 0,7 °C 1,6 km/h (1 Bft)
13.11.2023 03:00 21,4 °C -0,1 °C 60 % 91 % 1010,5 hPa 0,0 l/m² 1,0 km/h (0 Bft) O 0,00 h 0 W/m² -1,5 °C -0,1 °C 1,5 km/h (1 Bft)
13.11.2023 04:00 21,5 °C -0,4 °C 59 % 91 % 1010,4 hPa 0,0 l/m² 1,1 km/h (1 Bft) O 0,00 h 0 W/m² -1,6 °C -0,4 °C 2,2 km/h (1 Bft)
13.11.2023 05:00 21,6 °C -0,8 °C 59 % 92 % 1010,5 hPa 0,0 l/m² 1,4 km/h (1 Bft) O 0,00 h 0 W/m² -1,9 °C -0,8 °C 2,3 km/h (1 Bft)
13.11.2023 06:00 21,6 °C -0,8 °C 58 % 93 % 1010,4 hPa 0,0 l/m² 0,3 km/h (0 Bft) O-NO 0,00 h 0 W/m² -1,8 °C -0,8 °C 0,5 km/h (0 Bft)
13.11.2023 07:00 21,4 °C -0,7 °C 53 % 93 % 1010,3 hPa 0,0 l/m² 0,5 km/h (0 Bft) O-NO 0,00 h 13 W/m² -1,7 °C -0,7 °C 0,9 km/h (0 Bft)
13.11.2023 08:00 21,5 °C 0,1 °C 55 % 94 % 1009,9 hPa 0,0 l/m² 0,9 km/h (0 Bft) O-NO 0,73 h 67 W/m² -0,8 °C 0,1 °C 1,5 km/h (1 Bft)
13.11.2023 09:00 21,8 °C 2,6 °C 55 % 94 % 1009,5 hPa 0,0 l/m² 1,4 km/h (1 Bft) O 1,00 h 135 W/m² 1,8 °C 2,6 °C 2,3 km/h (1 Bft)
13.11.2023 10:00 21,9 °C 5,5 °C 55 % 92 % 1008,8 hPa 0,0 l/m² 3,5 km/h (1 Bft) O 1,00 h 144 W/m² 4,2 °C 5,1 °C 5,8 km/h (2 Bft)
13.11.2023 11:00 21,8 °C 6,6 °C 55 % 89 % 1008,1 hPa 0,4 l/m² 7,9 km/h (2 Bft) S-SO 0,93 h 77 W/m² 4,9 °C 5,3 °C 11,9 km/h (2 Bft)
13.11.2023 12:00 21,7 °C 7,0 °C 56 % 90 % 1007,4 hPa 0,2 l/m² 5,0 km/h (1 Bft) SO 0,87 h 84 W/m² 5,5 °C 6,8 °C 7,7 km/h (2 Bft)
13.11.2023 13:00 21,6 °C 7,2 °C 56 % 91 % 1006,0 hPa 1,2 l/m² 5,1 km/h (1 Bft) O-SO 0,30 h 49 W/m² 5,9 °C 7,1 °C 7,9 km/h (2 Bft)
13.11.2023 14:00 21,5 °C 7,2 °C 56 % 92 % 1004,8 hPa 1,4 l/m² 5,5 km/h (2 Bft) O-SO 0,00 h 26 W/m² 6,1 °C 6,9 °C 8,4 km/h (2 Bft)
13.11.2023 15:00 21,5 °C 7,3 °C 56 % 93 % 1003,6 hPa 0,8 l/m² 9,1 km/h (2 Bft) SO 0,00 h 9 W/m² 6,3 °C 5,3 °C 13,0 km/h (3 Bft)
13.11.2023 16:00 21,4 °C 7,7 °C 57 % 94 % 1001,8 hPa 0,2 l/m² 12,2 km/h (2 Bft) O-SO 0,00 h 0 W/m² 6,8 °C 3,8 °C 16,4 km/h (3 Bft)
13.11.2023 17:00 21,3 °C 8,0 °C 54 % 94 % 1000,5 hPa 2,2 l/m² 10,6 km/h (2 Bft) SO 0,00 h 0 W/m² 7,1 °C 5,1 °C 14,9 km/h (3 Bft)
13.11.2023 18:00 21,4 °C 8,2 °C 56 % 94 % 998,9 hPa 0,4 l/m² 8,2 km/h (2 Bft) O-SO 0,00 h 0 W/m² 7,3 °C 6,6 °C 12,5 km/h (2 Bft)
13.11.2023 19:00 21,4 °C 8,8 °C 56 % 95 % 998,0 hPa 0,2 l/m² 6,0 km/h (2 Bft) SO 0,00 h 0 W/m² 8,0 °C 8,4 °C 8,9 km/h (2 Bft)
13.11.2023 20:00 21,7 °C 9,4 °C 57 % 95 % 998,8 hPa 0,0 l/m² 7,0 km/h (2 Bft) S-SW 0,00 h 0 W/m² 8,6 °C 7,8 °C 10,1 km/h (2 Bft)
13.11.2023 21:00 21,9 °C 9,5 °C 57 % 95 % 998,7 hPa 0,0 l/m² 11,5 km/h (2 Bft) SW 0,00 h 0 W/m² 8,7 °C 6,2 °C 14,6 km/h (3 Bft)
13.11.2023 22:00 21,8 °C 8,6 °C 57 % 94 % 999,6 hPa 0,0 l/m² 7,8 km/h (2 Bft) S-SW 0,00 h 0 W/m² 7,7 °C 7,1 °C 10,9 km/h (2 Bft)
13.11.2023 23:00 21,6 °C 9,7 °C 57 % 91 % 1000,5 hPa 0,0 l/m² 16,5 km/h (3 Bft) SW 0,00 h 0 W/m² 8,2 °C 4,2 °C 22,7 km/h (4 Bft)
14.11.2023 00:00 21,4 °C 9,6 °C 57 % 86 % 1001,3 hPa 0,0 l/m² 13,0 km/h (3 Bft) SW 0,00 h 0 W/m² 7,4 °C 5,6 °C 17,6 km/h (3 Bft)
14.11.2023 01:00 21,4 °C 9,2 °C 57 % 88 % 1001,5 hPa 0,0 l/m² 8,9 km/h (2 Bft) SW 0,00 h 0 W/m² 7,2 °C 7,4 °C 11,6 km/h (2 Bft)
14.11.2023 02:00 21,4 °C 9,8 °C 57 % 87 % 1001,4 hPa 0,0 l/m² 13,6 km/h (3 Bft) SW 0,00 h 0 W/m² 7,6 °C 5,5 °C 17,9 km/h (3 Bft)
14.11.2023 03:00 21,4 °C 10,3 °C 57 % 83 % 1001,3 hPa 0,0 l/m² 15,0 km/h (3 Bft) SW 0,00 h 0 W/m² 7,5 °C 5,5 °C 21,3 km/h (4 Bft)
14.11.2023 04:00 21,4 °C 9,8 °C 57 % 83 % 1001,5 hPa 0,0 l/m² 12,3 km/h (2 Bft) SW 0,00 h 0 W/m² 7,1 °C 6,3 °C 17,3 km/h (3 Bft)
14.11.2023 05:00 21,4 °C 9,6 °C 57 % 84 % 1001,8 hPa 0,0 l/m² 18,1 km/h (3 Bft) SW 0,00 h 0 W/m² 7,0 °C 3,5 °C 24,3 km/h (4 Bft)
14.11.2023 06:00 21,3 °C 9,6 °C 57 % 84 % 1001,8 hPa 0,0 l/m² 20,5 km/h (4 Bft) SW 0,00 h 0 W/m² 7,0 °C 2,7 °C 27,6 km/h (5 Bft)
14.11.2023 07:00 21,2 °C 9,9 °C 55 % 83 % 1001,8 hPa 0,0 l/m² 21,5 km/h (4 Bft) SW 0,00 h 9 W/m² 7,2 °C 2,8 °C 29,6 km/h (5 Bft)
14.11.2023 08:00 21,2 °C 10,3 °C 55 % 83 % 1002,2 hPa 0,0 l/m² 23,3 km/h (4 Bft) SW 0,10 h 29 W/m² 7,5 °C 2,8 °C 31,8 km/h (5 Bft)
14.11.2023 09:00 21,4 °C 10,8 °C 55 % 82 % 1002,4 hPa 0,0 l/m² 26,4 km/h (4 Bft) SW 0,48 h 94 W/m² 7,9 °C 2,7 °C 36,8 km/h (5 Bft)
14.11.2023 10:00 21,8 °C 11,9 °C 55 % 80 % 1002,8 hPa 0,0 l/m² 28,4 km/h (5 Bft) SW 1,00 h 220 W/m² 8,7 °C 3,8 °C 38,1 km/h (6 Bft)
14.11.2023 11:00 21,9 °C 12,6 °C 54 % 79 % 1002,8 hPa 0,0 l/m² 27,3 km/h (5 Bft) SW 1,00 h 209 W/m² 9,0 °C 4,9 °C 37,0 km/h (5 Bft)
14.11.2023 12:00 22,0 °C 13,1 °C 54 % 77 % 1003,0 hPa 0,0 l/m² 26,7 km/h (4 Bft) SW 1,00 h 240 W/m² 9,1 °C 5,8 °C 35,1 km/h (5 Bft)
14.11.2023 13:00 22,0 °C 12,9 °C 54 % 77 % 1002,6 hPa 0,0 l/m² 27,0 km/h (5 Bft) SW 0,98 h 189 W/m² 9,1 °C 5,4 °C 35,9 km/h (5 Bft)
14.11.2023 14:00 21,9 °C 12,4 °C 55 % 81 % 1002,5 hPa 0,0 l/m² 24,2 km/h (4 Bft) SW 0,97 h 150 W/m² 9,2 °C 5,4 °C 32,4 km/h (5 Bft)
14.11.2023 15:00 21,9 °C 12,0 °C 55 % 81 % 1002,3 hPa 0,0 l/m² 23,4 km/h (4 Bft) SW 0,55 h 61 W/m² 8,9 °C 5,1 °C 30,3 km/h (5 Bft)
14.11.2023 16:00 21,7 °C 10,6 °C 55 % 85 % 1002,3 hPa 0,0 l/m² 10,6 km/h (2 Bft) S-SW 0,00 h 10 W/m² 8,2 °C 8,0 °C 13,9 km/h (3 Bft)
14.11.2023 17:00 21,5 °C 10,8 °C 54 % 85 % 1002,2 hPa 0,0 l/m² 15,5 km/h (3 Bft) S-SW 0,00 h 0 W/m² 8,5 °C 6,0 °C 20,2 km/h (4 Bft)
14.11.2023 18:00 21,4 °C 10,7 °C 55 % 86 % 1001,9 hPa 0,0 l/m² 14,5 km/h (3 Bft) SW 0,00 h 0 W/m² 8,4 °C 6,3 °C 18,4 km/h (3 Bft)
14.11.2023 19:00 21,5 °C 10,7 °C 56 % 86 % 1001,8 hPa 0,0 l/m² 14,6 km/h (3 Bft) S-SW 0,00 h 0 W/m² 8,4 °C 6,5 °C 18,7 km/h (3 Bft)
14.11.2023 20:00 21,6 °C 10,3 °C 56 % 89 % 1001,5 hPa 0,8 l/m² 9,7 km/h (2 Bft) S-SW 0,00 h 0 W/m² 8,6 °C 8,1 °C 12,6 km/h (2 Bft)
14.11.2023 21:00 21,6 °C 9,8 °C 56 % 93 % 1001,3 hPa 2,2 l/m² 7,5 km/h (2 Bft) S-SW 0,00 h 0 W/m² 8,7 °C 8,3 °C 10,4 km/h (2 Bft)
14.11.2023 22:00 21,6 °C 9,7 °C 56 % 93 % 1000,8 hPa 1,0 l/m² 9,6 km/h (2 Bft) S-SW 0,00 h 0 W/m² 8,6 °C 7,6 °C 13,0 km/h (3 Bft)
14.11.2023 23:00 21,4 °C 9,5 °C 57 % 92 % 1001,0 hPa 1,8 l/m² 8,1 km/h (2 Bft) SW 0,00 h 0 W/m² 8,3 °C 8,2 °C 12,2 km/h (2 Bft)
15.11.2023 00:00 21,4 °C 9,3 °C 57 % 93 % 1001,4 hPa 2,0 l/m² 3,5 km/h (1 Bft) SW 0,00 h 0 W/m² 8,2 °C 9,3 °C 6,0 km/h (2 Bft)
15.11.2023 01:00 21,3 °C 8,8 °C 57 % 94 % 1001,9 hPa 0,6 l/m² 2,9 km/h (1 Bft) W-SW 0,00 h 0 W/m² 7,8 °C 8,8 °C 5,1 km/h (1 Bft)
15.11.2023 02:00 21,3 °C 8,5 °C 57 % 94 % 1002,9 hPa 0,0 l/m² 3,8 km/h (1 Bft) W-SW 0,00 h 0 W/m² 7,6 °C 8,5 °C 6,1 km/h (2 Bft)
15.11.2023 03:00 21,2 °C 8,6 °C 58 % 94 % 1004,1 hPa 0,2 l/m² 5,7 km/h (2 Bft) SW 0,00 h 0 W/m² 7,7 °C 8,4 °C 9,0 km/h (2 Bft)
15.11.2023 04:00 21,1 °C 8,7 °C 58 % 94 % 1005,2 hPa 0,0 l/m² 4,1 km/h (1 Bft) W-SW 0,00 h 0 W/m² 7,8 °C 8,0 °C 7,0 km/h (2 Bft)
15.11.2023 05:00 21,2 °C 8,5 °C 58 % 92 % 1006,3 hPa 0,0 l/m² 2,5 km/h (1 Bft) W-SW 0,00 h 0 W/m² 7,4 °C 8,5 °C 4,3 km/h (1 Bft)
15.11.2023 06:00 21,2 °C 8,5 °C 58 % 93 % 1007,6 hPa 0,0 l/m² 4,3 km/h (1 Bft) W 0,00 h 0 W/m² 7,4 °C 7,7 °C 8,0 km/h (2 Bft)
15.11.2023 07:00 21,1 °C 8,7 °C 57 % 92 % 1008,7 hPa 0,0 l/m² 13,8 km/h (3 Bft) W 0,00 h 6 W/m² 7,5 °C 4,3 °C 19,1 km/h (3 Bft)
15.11.2023 08:00 21,0 °C 8,3 °C 57 % 93 % 1010,0 hPa 0,6 l/m² 7,8 km/h (2 Bft) W 0,00 h 19 W/m² 7,2 °C 7,0 °C 13,0 km/h (3 Bft)
15.11.2023 09:00 21,1 °C 8,1 °C 57 % 93 % 1010,8 hPa 0,0 l/m² 4,5 km/h (1 Bft) W 0,48 h 55 W/m² 7,1 °C 7,7 °C 8,2 km/h (2 Bft)
15.11.2023 10:00 21,1 °C 8,7 °C 57 % 94 % 1011,3 hPa 0,2 l/m² 4,3 km/h (1 Bft) W 1,00 h 98 W/m² 7,7 °C 8,4 °C 9,1 km/h (2 Bft)
15.11.2023 11:00 21,2 °C 9,3 °C 57 % 91 % 1011,5 hPa 0,0 l/m² 4,0 km/h (1 Bft) W 1,00 h 133 W/m² 7,9 °C 9,2 °C 8,8 km/h (2 Bft)
15.11.2023 12:00 21,1 °C 9,6 °C 57 % 89 % 1011,8 hPa 0,4 l/m² 0,7 km/h (0 Bft) N 0,03 h 33 W/m² 7,8 °C 9,6 °C 2,0 km/h (1 Bft)
15.11.2023 13:00 21,0 °C 9,3 °C 57 % 91 % 1012,1 hPa 0,2 l/m² 0,2 km/h (0 Bft) N 0,72 h 72 W/m² 7,8 °C 9,3 °C 0,8 km/h (0 Bft)
15.11.2023 14:00 21,1 °C 9,2 °C 57 % 91 % 1012,4 hPa 0,2 l/m² 0,0 km/h (0 Bft) N 0,32 h 42 W/m² 7,9 °C 9,2 °C 0,1 km/h (0 Bft)
15.11.2023 15:00 21,1 °C 9,1 °C 58 % 92 % 1012,9 hPa 0,0 l/m² 0,1 km/h (0 Bft) N 0,42 h 43 W/m² 7,9 °C 9,1 °C 0,4 km/h (0 Bft)
15.11.2023 16:00 21,1 °C 8,8 °C 58 % 93 % 1013,3 hPa 0,0 l/m² 0,1 km/h (0 Bft) N 0,00 h 10 W/m² 7,6 °C 8,8 °C 0,2 km/h (0 Bft)
15.11.2023 17:00 20,9 °C 8,4 °C 58 % 93 % 1013,9 hPa 0,0 l/m² 4,0 km/h (1 Bft) W-SW 0,00 h 0 W/m² 7,3 °C 8,4 °C 6,8 km/h (2 Bft)
15.11.2023 18:00 20,9 °C 8,6 °C 58 % 92 % 1014,5 hPa 0,0 l/m² 6,6 km/h (2 Bft) SW 0,00 h 0 W/m² 7,3 °C 7,7 °C 9,9 km/h (2 Bft)
15.11.2023 19:00 20,9 °C 8,5 °C 59 % 91 % 1014,8 hPa 0,0 l/m² 6,7 km/h (2 Bft) SW 0,00 h 0 W/m² 7,1 °C 6,8 °C 9,6 km/h (2 Bft)
15.11.2023 20:00 20,9 °C 8,4 °C 59 % 91 % 1014,8 hPa 0,0 l/m² 5,5 km/h (2 Bft) W-SW 0,00 h 0 W/m² 7,0 °C 7,6 °C 8,8 km/h (2 Bft)
15.11.2023 21:00 21,2 °C 8,4 °C 60 % 91 % 1015,0 hPa 0,2 l/m² 12,8 km/h (3 Bft) S-SW 0,00 h 0 W/m² 7,0 °C 4,4 °C 16,8 km/h (3 Bft)
15.11.2023 22:00 21,2 °C 8,3 °C 59 % 90 % 1014,9 hPa 0,0 l/m² 14,4 km/h (3 Bft) SW 0,00 h 0 W/m² 6,8 °C 3,4 °C 18,7 km/h (3 Bft)
15.11.2023 23:00 21,1 °C 7,8 °C 59 % 89 % 1014,9 hPa 0,0 l/m² 11,9 km/h (2 Bft) SW 0,00 h 0 W/m² 6,1 °C 4,1 °C 15,8 km/h (3 Bft)
16.11.2023 00:00 21,0 °C 6,4 °C 59 % 89 % 1014,9 hPa 0,0 l/m² 7,7 km/h (2 Bft) S-SW 0,00 h 0 W/m² 4,8 °C 5,1 °C 9,9 km/h (2 Bft)
16.11.2023 01:00 20,9 °C 6,1 °C 59 % 91 % 1014,6 hPa 0,0 l/m² 10,0 km/h (2 Bft) S-SW 0,00 h 0 W/m² 4,7 °C 3,3 °C 13,6 km/h (3 Bft)
16.11.2023 02:00 21,0 °C 7,0 °C 58 % 91 % 1014,3 hPa 0,0 l/m² 12,8 km/h (3 Bft) S-SW 0,00 h 0 W/m² 5,6 °C 2,6 °C 17,0 km/h (3 Bft)
16.11.2023 03:00 20,9 °C 7,3 °C 58 % 89 % 1014,3 hPa 0,0 l/m² 12,8 km/h (3 Bft) SW 0,00 h 0 W/m² 5,7 °C 3,0 °C 17,3 km/h (3 Bft)
16.11.2023 04:00 20,9 °C 7,3 °C 58 % 89 % 1014,0 hPa 0,0 l/m² 13,7 km/h (3 Bft) S-SW 0,00 h 0 W/m² 5,6 °C 2,6 °C 18,3 km/h (3 Bft)
16.11.2023 05:00 21,0 °C 7,3 °C 58 % 88 % 1013,8 hPa 0,0 l/m² 14,6 km/h (3 Bft) S-SW 0,00 h 0 W/m² 5,5 °C 2,2 °C 19,3 km/h (3 Bft)
16.11.2023 06:00 21,2 °C 6,9 °C 58 % 87 % 1013,5 hPa 0,0 l/m² 10,0 km/h (2 Bft) S-SW 0,00 h 0 W/m² 4,9 °C 4,3 °C 14,2 km/h (3 Bft)
16.11.2023 07:00 21,1 °C 6,5 °C 54 % 88 % 1013,6 hPa 0,0 l/m² 8,9 km/h (2 Bft) S-SW 0,00 h 0 W/m² 4,8 °C 4,6 °C 12,0 km/h (2 Bft)
16.11.2023 08:00 21,1 °C 7,1 °C 55 % 88 % 1013,7 hPa 0,0 l/m² 10,6 km/h (2 Bft) SW 0,00 h 18 W/m² 5,3 °C 4,2 °C 15,0 km/h (3 Bft)
16.11.2023 09:00 21,1 °C 7,7 °C 55 % 87 % 1013,8 hPa 0,0 l/m² 13,6 km/h (3 Bft) SW 0,12 h 37 W/m² 5,6 °C 3,1 °C 18,3 km/h (3 Bft)
16.11.2023 10:00 21,3 °C 8,4 °C 55 % 86 % 1013,4 hPa 0,0 l/m² 17,1 km/h (3 Bft) SW 0,92 h 143 W/m² 6,2 °C 2,3 °C 22,8 km/h (4 Bft)
16.11.2023 11:00 21,5 °C 9,0 °C 55 % 85 % 1012,9 hPa 0,0 l/m² 18,7 km/h (3 Bft) SW 0,97 h 280 W/m² 6,6 °C 2,6 °C 25,2 km/h (4 Bft)
16.11.2023 12:00 21,8 °C 8,9 °C 55 % 85 % 1012,6 hPa 0,0 l/m² 12,9 km/h (3 Bft) NW 0,87 h 186 W/m² 6,4 °C 5,2 °C 17,8 km/h (3 Bft)
16.11.2023 13:00 21,6 °C 8,1 °C 55 % 88 % 1011,8 hPa 0,0 l/m² 1,2 km/h (1 Bft) W 1,00 h 93 W/m² 6,2 °C 8,1 °C 2,9 km/h (1 Bft)
16.11.2023 14:00 21,5 °C 8,1 °C 55 % 87 % 1011,4 hPa 0,0 l/m² 0,9 km/h (0 Bft) W 0,70 h 64 W/m² 6,2 °C 8,1 °C 1,6 km/h (1 Bft)
16.11.2023 15:00 21,4 °C 7,6 °C 56 % 85 % 1011,1 hPa 0,0 l/m² 1,2 km/h (1 Bft) W 0,00 h 27 W/m² 5,2 °C 7,6 °C 2,1 km/h (1 Bft)
16.11.2023 16:00 21,3 °C 6,8 °C 56 % 85 % 1010,6 hPa 0,0 l/m² 0,0 km/h (0 Bft) W 0,00 h 5 W/m² 4,5 °C 6,8 °C 0,0 km/h (0 Bft)
16.11.2023 17:00 21,2 °C 5,9 °C 55 % 87 % 1010,8 hPa 0,0 l/m² 0,0 km/h (0 Bft) W 0,00 h 0 W/m² 3,8 °C 5,9 °C 0,0 km/h (0 Bft)
16.11.2023 18:00 21,1 °C 5,3 °C 55 % 89 % 1011,0 hPa 0,0 l/m² 0,2 km/h (0 Bft) W 0,00 h 0 W/m² 3,6 °C 5,3 °C 0,4 km/h (0 Bft)
16.11.2023 19:00 21,1 °C 4,7 °C 56 % 90 % 1010,7 hPa 0,0 l/m² 0,0 km/h (0 Bft) W 0,00 h 0 W/m² 3,2 °C 4,7 °C 0,0 km/h (0 Bft)
16.11.2023 20:00 21,2 °C 4,0 °C 56 % 90 % 1010,4 hPa 0,0 l/m² 0,0 km/h (0 Bft) W 0,00 h 0 W/m² 2,6 °C 4,0 °C 0,0 km/h (0 Bft)
16.11.2023 21:00 21,4 °C 3,5 °C 55 % 91 % 1010,4 hPa 0,0 l/m² 0,1 km/h (0 Bft) W 0,00 h 0 W/m² 2,1 °C 3,5 °C 0,2 km/h (0 Bft)
16.11.2023 22:00 21,4 °C 2,7 °C 55 % 91 % 1010,3 hPa 0,0 l/m² 0,2 km/h (0 Bft) W-NW 0,00 h 0 W/m² 1,4 °C 2,7 °C 0,8 km/h (0 Bft)
16.11.2023 23:00 21,3 °C 2,1 °C 55 % 92 % 1010,5 hPa 0,0 l/m² 0,2 km/h (0 Bft) W 0,00 h 0 W/m² 0,9 °C 2,1 °C 0,5 km/h (0 Bft)
17.11.2023 00:00 21,3 °C 2,0 °C 55 % 92 % 1011,2 hPa 0,0 l/m² 1,2 km/h (1 Bft) NW 0,00 h 0 W/m² 0,9 °C 2,0 °C 3,2 km/h (1 Bft)
17.11.2023 01:00 21,3 °C 1,5 °C 55 % 92 % 1011,8 hPa 0,0 l/m² 0,6 km/h (0 Bft) W 0,00 h 0 W/m² 0,5 °C 1,5 °C 1,2 km/h (1 Bft)
17.11.2023 02:00 21,2 °C 2,6 °C 56 % 93 % 1012,5 hPa 0,0 l/m² 6,7 km/h (2 Bft) W 0,00 h 0 W/m² 1,6 °C 1,3 °C 11,0 km/h (2 Bft)
17.11.2023 03:00 21,1 °C 3,2 °C 56 % 91 % 1013,0 hPa 0,0 l/m² 11,4 km/h (2 Bft) W 0,00 h 0 W/m² 1,9 °C -0,7 °C 17,8 km/h (3 Bft)
17.11.2023 04:00 21,2 °C 3,2 °C 56 % 88 % 1013,8 hPa 0,0 l/m² 15,0 km/h (3 Bft) W 0,00 h 0 W/m² 1,4 °C -2,9 °C 21,8 km/h (4 Bft)
17.11.2023 05:00 21,2 °C 3,2 °C 55 % 87 % 1014,4 hPa 0,0 l/m² 15,7 km/h (3 Bft) W 0,00 h 0 W/m² 1,2 °C -3,4 °C 21,7 km/h (4 Bft)
17.11.2023 06:00 21,1 °C 3,4 °C 55 % 86 % 1014,8 hPa 0,0 l/m² 15,4 km/h (3 Bft) W 0,00 h 0 W/m² 1,2 °C -3,0 °C 21,4 km/h (4 Bft)
17.11.2023 07:00 21,0 °C 3,7 °C 53 % 85 % 1015,2 hPa 0,0 l/m² 17,3 km/h (3 Bft) W 0,00 h 6 W/m² 1,3 °C -3,6 °C 23,0 km/h (4 Bft)
17.11.2023 08:00 21,0 °C 3,9 °C 54 % 85 % 1015,9 hPa 0,0 l/m² 11,4 km/h (2 Bft) W-SW 0,00 h 16 W/m² 1,6 °C -0,0 °C 16,1 km/h (3 Bft)
17.11.2023 09:00 21,1 °C 4,5 °C 54 % 84 % 1016,5 hPa 0,0 l/m² 13,3 km/h (3 Bft) W 0,78 h 65 W/m² 2,1 °C -0,4 °C 18,3 km/h (3 Bft)
17.11.2023 10:00 21,1 °C 5,7 °C 54 % 81 % 1016,9 hPa 0,0 l/m² 15,8 km/h (3 Bft) W 1,00 h 106 W/m² 2,7 °C -0,4 °C 21,7 km/h (4 Bft)
17.11.2023 11:00 21,1 °C 6,5 °C 54 % 79 % 1016,9 hPa 0,0 l/m² 16,1 km/h (3 Bft) W 0,83 h 76 W/m² 3,1 °C 0,5 °C 22,1 km/h (4 Bft)
17.11.2023 12:00 21,1 °C 6,9 °C 54 % 78 % 1017,2 hPa 0,0 l/m² 15,8 km/h (3 Bft) W 1,00 h 116 W/m² 3,4 °C 1,2 °C 22,1 km/h (4 Bft)
17.11.2023 13:00 21,2 °C 7,6 °C 54 % 76 % 1017,5 hPa 0,0 l/m² 16,7 km/h (3 Bft) W 1,00 h 175 W/m² 3,6 °C 1,6 °C 22,6 km/h (4 Bft)
17.11.2023 14:00 21,2 °C 7,3 °C 53 % 77 % 1017,9 hPa 0,0 l/m² 18,0 km/h (3 Bft) W 0,98 h 73 W/m² 3,6 °C 0,8 °C 23,7 km/h (4 Bft)
17.11.2023 15:00 21,3 °C 7,0 °C 53 % 79 % 1018,6 hPa 0,0 l/m² 10,1 km/h (2 Bft) W 0,02 h 29 W/m² 3,6 °C 4,2 °C 14,1 km/h (3 Bft)
17.11.2023 16:00 21,2 °C 6,2 °C 54 % 82 % 1019,3 hPa 0,0 l/m² 7,9 km/h (2 Bft) W 0,00 h 8 W/m² 3,4 °C 4,3 °C 11,0 km/h (2 Bft)
17.11.2023 17:00 21,1 °C 5,9 °C 54 % 83 % 1019,9 hPa 0,0 l/m² 7,9 km/h (2 Bft) W 0,00 h 0 W/m² 3,2 °C 4,5 °C 11,7 km/h (2 Bft)
17.11.2023 18:00 21,1 °C 5,5 °C 54 % 86 % 1020,6 hPa 0,0 l/m² 5,4 km/h (1 Bft) W 0,00 h 0 W/m² 3,3 °C 5,3 °C 8,1 km/h (2 Bft)
17.11.2023 19:00 21,0 °C 4,9 °C 54 % 87 % 1021,0 hPa 0,0 l/m² 3,6 km/h (1 Bft) W 0,00 h 0 W/m² 3,0 °C 4,9 °C 5,6 km/h (2 Bft)
17.11.2023 20:00 21,1 °C 4,8 °C 54 % 89 % 1021,5 hPa 0,0 l/m² 1,0 km/h (0 Bft) W-NW 0,00 h 0 W/m² 3,1 °C 4,8 °C 2,3 km/h (1 Bft)
17.11.2023 21:00 21,2 °C 4,9 °C 54 % 89 % 1022,0 hPa 0,0 l/m² 3,2 km/h (1 Bft) W-NW 0,00 h 0 W/m² 3,2 °C 4,9 °C 6,1 km/h (2 Bft)
17.11.2023 22:00 21,2 °C 4,4 °C 54 % 88 % 1022,5 hPa 0,0 l/m² 1,5 km/h (1 Bft) W 0,00 h 0 W/m² 2,6 °C 4,4 °C 2,8 km/h (1 Bft)
17.11.2023 23:00 21,1 °C 3,8 °C 54 % 90 % 1023,1 hPa 0,0 l/m² 1,7 km/h (1 Bft) W 0,00 h 0 W/m² 2,2 °C 3,8 °C 3,6 km/h (1 Bft)
18.11.2023 00:00 20,9 °C 3,6 °C 54 % 90 % 1023,8 hPa 0,0 l/m² 1,4 km/h (1 Bft) W 0,00 h 0 W/m² 2,1 °C 3,6 °C 2,6 km/h (1 Bft)
18.11.2023 01:00 20,9 °C 2,7 °C 54 % 90 % 1024,2 hPa 0,0 l/m² 2,3 km/h (1 Bft) W 0,00 h 0 W/m² 1,2 °C 2,7 °C 3,6 km/h (1 Bft)
18.11.2023 02:00 20,8 °C 1,6 °C 55 % 90 % 1024,2 hPa 0,0 l/m² 0,0 km/h (0 Bft) N 0,00 h 0 W/m² 0,1 °C 1,6 °C 0,0 km/h (0 Bft)
18.11.2023 03:00 20,7 °C 1,1 °C 55 % 91 % 1024,5 hPa 0,0 l/m² 0,6 km/h (0 Bft) N 0,00 h 0 W/m² -0,1 °C 1,1 °C 1,1 km/h (1 Bft)
18.11.2023 04:00 20,8 °C 2,0 °C 55 % 93 % 1024,8 hPa 0,0 l/m² 0,0 km/h (0 Bft) N 0,00 h 0 W/m² 1,0 °C 2,0 °C 0,0 km/h (0 Bft)
18.11.2023 05:00 20,8 °C 2,7 °C 55 % 93 % 1025,1 hPa 0,0 l/m² 0,1 km/h (0 Bft) N 0,00 h 0 W/m² 1,7 °C 2,7 °C 0,1 km/h (0 Bft)
18.11.2023 06:00 20,7 °C 2,8 °C 55 % 94 % 1025,1 hPa 0,0 l/m² 0,0 km/h (0 Bft) N 0,00 h 0 W/m² 2,0 °C 2,8 °C 0,0 km/h (0 Bft)
18.11.2023 07:00 20,7 °C 3,0 °C 55 % 94 % 1025,0 hPa 0,0 l/m² 0,0 km/h (0 Bft) N 0,00 h 8 W/m² 2,2 °C 3,0 °C 0,1 km/h (0 Bft)
18.11.2023 08:00 20,6 °C 3,1 °C 55 % 94 % 1025,6 hPa 0,0 l/m² 0,3 km/h (0 Bft) N 0,07 h 25 W/m² 2,2 °C 3,1 °C 0,8 km/h (0 Bft)
18.11.2023 09:00 21,0 °C 3,9 °C 55 % 94 % 1025,9 hPa 0,0 l/m² 1,2 km/h (1 Bft) W-SW 0,77 h 65 W/m² 3,0 °C 3,9 °C 2,8 km/h (1 Bft)
18.11.2023 10:00 21,1 °C 4,9 °C 54 % 94 % 1025,9 hPa 0,0 l/m² 0,4 km/h (0 Bft) W-SW 1,00 h 101 W/m² 3,9 °C 4,9 °C 1,0 km/h (0 Bft)
18.11.2023 11:00 21,4 °C 6,1 °C 52 % 88 % 1025,6 hPa 0,0 l/m² 2,7 km/h (1 Bft) S-SW 1,00 h 283 W/m² 4,3 °C 6,0 °C 4,2 km/h (1 Bft)
18.11.2023 12:00 21,8 °C 7,2 °C 50 % 82 % 1025,1 hPa 0,0 l/m² 5,9 km/h (2 Bft) S-SO 1,02 h 308 W/m² 4,4 °C 6,9 °C 8,3 km/h (2 Bft)
18.11.2023 13:00 21,7 °C 7,5 °C 51 % 79 % 1024,2 hPa 0,0 l/m² 8,3 km/h (2 Bft) S-SO 1,00 h 251 W/m² 4,1 °C 5,9 °C 11,2 km/h (2 Bft)
18.11.2023 14:00 21,5 °C 6,9 °C 50 % 81 % 1023,7 hPa 0,0 l/m² 8,1 km/h (2 Bft) S-SO 0,97 h 85 W/m² 3,8 °C 5,4 °C 11,3 km/h (2 Bft)
18.11.2023 15:00 21,6 °C 6,2 °C 52 % 84 % 1023,3 hPa 0,0 l/m² 4,9 km/h (1 Bft) S 0,00 h 30 W/m² 3,6 °C 5,8 °C 7,5 km/h (2 Bft)
18.11.2023 16:00 21,6 °C 5,7 °C 55 % 85 % 1022,4 hPa 0,0 l/m² 8,1 km/h (2 Bft) O 0,00 h 5 W/m² 3,3 °C 4,0 °C 10,5 km/h (2 Bft)
18.11.2023 17:00 22,0 °C 5,8 °C 57 % 84 % 1021,9 hPa 0,0 l/m² 7,8 km/h (2 Bft) O-SO 0,00 h 0 W/m² 3,3 °C 4,6 °C 10,9 km/h (2 Bft)
18.11.2023 18:00 22,3 °C 5,9 °C 58 % 84 % 1021,3 hPa 0,0 l/m² 7,9 km/h (2 Bft) O-SO 0,00 h 0 W/m² 3,4 °C 4,6 °C 11,3 km/h (2 Bft)
18.11.2023 19:00 22,2 °C 5,7 °C 57 % 84 % 1020,6 hPa 0,0 l/m² 8,9 km/h (2 Bft) S-SO 0,00 h 0 W/m² 3,3 °C 3,7 °C 12,6 km/h (2 Bft)
18.11.2023 20:00 22,1 °C 5,5 °C 55 % 85 % 1019,5 hPa 0,0 l/m² 7,7 km/h (2 Bft) SO 0,00 h 0 W/m² 3,3 °C 4,4 °C 11,0 km/h (2 Bft)
18.11.2023 21:00 22,1 °C 5,5 °C 55 % 87 % 1018,6 hPa 0,6 l/m² 8,7 km/h (2 Bft) SO 0,00 h 0 W/m² 3,5 °C 3,6 °C 12,6 km/h (3 Bft)
18.11.2023 22:00 22,1 °C 5,4 °C 55 % 90 % 1017,5 hPa 1,2 l/m² 11,9 km/h (2 Bft) SO 0,00 h 0 W/m² 3,9 °C 1,4 °C 15,8 km/h (3 Bft)
18.11.2023 23:00 22,0 °C 5,4 °C 55 % 92 % 1016,0 hPa 0,4 l/m² 15,1 km/h (3 Bft) SO 0,00 h 0 W/m² 4,2 °C -0,4 °C 20,4 km/h (4 Bft)
19.11.2023 00:00 21,7 °C 5,5 °C 56 % 91 % 1014,6 hPa 0,0 l/m² 12,8 km/h (3 Bft) SO 0,00 h 0 W/m² 4,1 °C 0,9 °C 17,6 km/h (3 Bft)
19.11.2023 01:00 21,6 °C 5,3 °C 57 % 91 % 1013,3 hPa 0,0 l/m² 14,5 km/h (3 Bft) SO 0,00 h 0 W/m² 3,9 °C -0,2 °C 19,3 km/h (3 Bft)
19.11.2023 02:00 21,7 °C 5,1 °C 57 % 92 % 1011,9 hPa 0,0 l/m² 13,5 km/h (3 Bft) SO 0,00 h 0 W/m² 3,8 °C 0,1 °C 18,5 km/h (3 Bft)
19.11.2023 03:00 21,6 °C 5,4 °C 57 % 92 % 1010,4 hPa 0,4 l/m² 8,2 km/h (2 Bft) SO 0,00 h 0 W/m² 4,2 °C 3,9 °C 13,0 km/h (3 Bft)
19.11.2023 04:00 21,5 °C 6,1 °C 57 % 93 % 1009,5 hPa 2,2 l/m² 10,5 km/h (2 Bft) S-SO 0,00 h 0 W/m² 5,0 °C 3,0 °C 16,7 km/h (3 Bft)
19.11.2023 05:00 21,4 °C 6,5 °C 57 % 93 % 1008,7 hPa 1,0 l/m² 2,5 km/h (1 Bft) O-SO 0,00 h 0 W/m² 5,4 °C 6,3 °C 4,8 km/h (1 Bft)
19.11.2023 06:00 21,4 °C 7,1 °C 57 % 94 % 1008,0 hPa 0,0 l/m² 8,4 km/h (2 Bft) S 0,00 h 0 W/m² 6,2 °C 5,2 °C 12,4 km/h (2 Bft)
19.11.2023 07:00 21,4 °C 7,7 °C 57 % 93 % 1007,8 hPa 0,0 l/m² 16,4 km/h (3 Bft) S-SW 0,00 h 6 W/m² 6,7 °C 2,0 °C 21,9 km/h (4 Bft)
19.11.2023 08:00 21,4 °C 8,1 °C 57 % 92 % 1008,1 hPa 0,0 l/m² 11,3 km/h (2 Bft) S-SW 0,05 h 24 W/m² 7,0 °C 4,9 °C 15,2 km/h (3 Bft)
19.11.2023 09:00 21,7 °C 9,5 °C 58 % 92 % 1008,6 hPa 0,0 l/m² 4,9 km/h (1 Bft) SW 0,95 h 122 W/m² 8,2 °C 8,6 °C 6,9 km/h (2 Bft)
19.11.2023 10:00 21,9 °C 10,3 °C 57 % 91 % 1008,6 hPa 0,0 l/m² 6,8 km/h (2 Bft) S 0,55 h 66 W/m² 8,9 °C 9,1 °C 9,6 km/h (2 Bft)
19.11.2023 11:00 21,7 °C 10,8 °C 56 % 91 % 1008,5 hPa 0,6 l/m² 8,0 km/h (2 Bft) SW 0,78 h 99 W/m² 9,4 °C 9,3 °C 11,2 km/h (2 Bft)
19.11.2023 12:00 21,8 °C 12,4 °C 56 % 84 % 1008,2 hPa 0,0 l/m² 16,4 km/h (3 Bft) W-SW 1,00 h 185 W/m² 9,9 °C 7,8 °C 22,4 km/h (4 Bft)
19.11.2023 13:00 21,8 °C 12,8 °C 57 % 80 % 1008,1 hPa 0,0 l/m² 18,1 km/h (3 Bft) W-SW 1,00 h 157 W/m² 9,4 °C 7,5 °C 23,6 km/h (4 Bft)
19.11.2023 14:00 21,7 °C 13,0 °C 56 % 77 % 1008,0 hPa 0,0 l/m² 18,0 km/h (3 Bft) W-SW 1,00 h 162 W/m² 9,0 °C 7,9 °C 23,7 km/h (4 Bft)
19.11.2023 15:00 21,7 °C 12,1 °C 56 % 77 % 1008,0 hPa 0,0 l/m² 20,0 km/h (4 Bft) W-SW 0,55 h 53 W/m² 8,2 °C 6,2 °C 26,3 km/h (4 Bft)
19.11.2023 16:00 21,8 °C 10,4 °C 56 % 84 % 1008,1 hPa 0,0 l/m² 7,4 km/h (2 Bft) SW 0,00 h 13 W/m² 7,8 °C 9,7 °C 9,3 km/h (2 Bft)
19.11.2023 17:00 21,7 °C 9,7 °C 56 % 87 % 1008,2 hPa 0,0 l/m² 9,8 km/h (2 Bft) SW 0,00 h 0 W/m² 7,7 °C 7,5 °C 12,5 km/h (2 Bft)
19.11.2023 18:00 21,6 °C 9,3 °C 56 % 87 % 1008,4 hPa 0,0 l/m² 7,8 km/h (2 Bft) S-SW 0,00 h 0 W/m² 7,2 °C 8,2 °C 10,2 km/h (2 Bft)
19.11.2023 19:00 21,6 °C 9,3 °C 58 % 87 % 1008,4 hPa 0,0 l/m² 7,5 km/h (2 Bft) SW 0,00 h 0 W/m² 7,3 °C 8,2 °C 9,8 km/h (2 Bft)
19.11.2023 20:00 21,7 °C 10,1 °C 58 % 86 % 1008,3 hPa 0,0 l/m² 13,2 km/h (3 Bft) SW 0,00 h 0 W/m² 7,9 °C 6,1 °C 17,3 km/h (3 Bft)
19.11.2023 21:00 21,7 °C 10,5 °C 58 % 85 % 1008,5 hPa 0,0 l/m² 19,6 km/h (3 Bft) SW 0,00 h 0 W/m² 8,1 °C 4,2 °C 25,3 km/h (4 Bft)
19.11.2023 22:00 21,7 °C 10,4 °C 57 % 87 % 1008,4 hPa 0,2 l/m² 17,1 km/h (3 Bft) SW 0,00 h 0 W/m² 8,3 °C 4,8 °C 23,4 km/h (4 Bft)
19.11.2023 23:00 21,5 °C 10,2 °C 57 % 88 % 1008,3 hPa 0,2 l/m² 17,9 km/h (3 Bft) SW 0,00 h 0 W/m² 8,3 °C 4,4 °C 24,2 km/h (4 Bft)
Min-Datum _ 18.11.23 13.11.23 18.11.23 19.11.23 13.11.23 - 19.11.23 - - - 13.11.23 17.11.23 19.11.23
_ Min-Zeit 08:01 06:40 12:17 15:00 19:13 - 09:12 - - - 05:38 06:57 09:12
Minimum _ 20,6 °C -0,9 °C 46 % 75 % 997,8 hPa - 0,0 km/h (0 Bft) - - - -2,0 °C -7,7 °C 0,0 km/h (0 Bft)
Max-Datum _ 18.11.23 14.11.23 15.11.23 13.11.23 18.11.23 14.11.23 14.11.23 - 19.11.23 16.11.23 19.11.23 19.11.23 14.11.23
_ Max-Zeit 18:16 12:14 21:00 21:00 09:51 21:03 13:23 - 12:46 11:53 12:00 12:58 10:11
Maximum _ 22,3 °C 13,6 °C 60 % 95 % 1026,1 hPa 2,2 l/m² 40,5 km/h
SW (6 Bft)
- 0,05 h 469 W/m² 10,5 °C 11,7 °C 53,1 km/h
SW (7 Bft)
Durchschnitt _ 21,4 °C 7,0 °C 56 % 88 % 1011,4 hPa #24,2 l/m² 8,8 km/h (2 Bft) SW #36:46 h 35 W/m² 5,2 °C 4,6 °C 12,2 km/h (2 Bft)
© 2009 Mathias Hoßbach